Change the Weather History Date:

Monday, October 29, 2012

  Actual Average Record
Temperature  
Mean Temperature 55 °F 41 °F  
Max Temperature 66 °F 54 °F 75 °F (1968)
Min Temperature 43 °F 28 °F -1 °F (1971)
Degree Days  
Heating Degree Days 10 24  
Month to date heating degree days 594 566  
Since 1 July heating degree days 743 851  
Cooling Degree Days 0 0  
Month to date cooling degree days 0 0  
Year to date cooling degree days 697 422  
Growing Degree Days 6 (Base 50)    
Moisture  
Dew Point 33 °F    
Average Humidity 49    
Maximum Humidity 70    
Minimum Humidity 28    
Precipitation  
Precipitation 0.00 in 0.04 in 0.41 in (1972)
Month to date precipitation 0.56 1.05  
Year to date precipitation 7.00 11.21  
Snow  
Snow 0.00 in 0.30 in - ()
Month to date snowfall 5.2 6.8  
Since 1 July snowfall 5.2 8.6  
Since 1 September snowfall 5.2 8.6  
Snow Depth 0.00 in    
Sea Level Pressure  
Sea Level Pressure 29.96 in    
Wind  
Wind Speed 16 mph (WSW)    
Max Wind Speed 25 mph    
Max Gust Speed 36 mph    
Visibility 10 miles    
Events      
T = Trace of Precipitation, MM = Missing Value Source: NWS Daily Summary

Daily Weather History Graph

Daily Weather History Graph

Search for Another Location

Airport or City:

Trip Planner

Search our weather history database for the weather conditions in past years. The results will help you decide how hot, cold, wet, or windy it might be!

Date:

Astronomy

Oct. 29, 2012 Rise Set
Actual Time 7:37 AM MDT 6:01 PM MDT
Civil Twilight 7:07 AM MDT 6:30 PM MDT
Nautical Twilight 6:34 AM MDT 7:03 PM MDT
Astronomical Twilight 6:01 AM MDT 7:36 PM MDT
Moon 5:53 PM MDT (10/29) 7:30 AM MDT (10/29)
Length of Visible Light 11h 22m
Length of Day
10h 24m
Full, 100% of the Moon is Illuminated
Oct 29
Full
Oct 29
Full
Nov 6
Last Quarter
Nov 13
New
Nov 20
First Quarter

Hourly Weather History & Observations

Time (MDT) Temp. Windchill Dew Point Humidity Pressure Visibility Wind Dir Wind Speed Gust Speed Precip Events Conditions
12:53 AM 50.0 °F - 34.0 °F 54% 29.94 in 10.0 mi SW 19.6 mph - N/A   Overcast
1:53 AM 48.0 °F - 35.1 °F 61% 29.95 in 10.0 mi North - - N/A   Scattered Clouds
2:53 AM 50.0 °F - 35.1 °F 57% 29.94 in 10.0 mi SW 16.1 mph 26.5 mph N/A   Overcast
3:53 AM 50.0 °F - 35.1 °F 57% 29.93 in 10.0 mi WSW 18.4 mph - N/A   Mostly Cloudy
4:53 AM 45.0 °F 38.9 °F 35.1 °F 68% 29.96 in 10.0 mi SSW 12.7 mph - N/A   Clear
5:53 AM 46.0 °F 41.9 °F 35.1 °F 66% 29.97 in 10.0 mi WSW 8.1 mph - N/A   Clear
6:53 AM 46.0 °F 41.0 °F 35.1 °F 66% 29.99 in 10.0 mi SW 10.4 mph - N/A   Clear
7:53 AM 46.9 °F - 35.1 °F 63% 29.99 in 10.0 mi SW 9.2 mph - N/A   Clear
8:53 AM 51.1 °F - 36.0 °F 56% 29.99 in 10.0 mi SW 13.8 mph - N/A   Clear
9:53 AM 55.9 °F - 36.0 °F 47% 29.99 in 10.0 mi SSW 18.4 mph - N/A   Clear
10:53 AM 59.0 °F - 35.1 °F 41% 29.96 in 10.0 mi SW 19.6 mph 24.2 mph N/A   Clear
11:53 AM 64.0 °F - 34.0 °F 33% 29.93 in 10.0 mi SW 21.9 mph 33.4 mph N/A   Clear
12:53 PM 62.1 °F - 33.1 °F 34% 29.93 in 10.0 mi WSW 21.9 mph 31.1 mph N/A   Clear
1:53 PM 61.0 °F - 33.1 °F 35% 29.92 in 10.0 mi WSW 23.0 mph 35.7 mph N/A   Clear
2:53 PM 62.1 °F - 33.1 °F 34% 29.91 in 10.0 mi WSW 20.7 mph 31.1 mph N/A   Clear
3:53 PM 64.9 °F - 32.0 °F 29% 29.89 in 10.0 mi WSW 21.9 mph 33.4 mph N/A   Clear
4:53 PM 64.9 °F - 30.0 °F 27% 29.92 in 10.0 mi West 25.3 mph 32.2 mph N/A   Mostly Cloudy
5:53 PM 60.1 °F - 28.9 °F 31% 29.94 in 10.0 mi West 11.5 mph - N/A   Scattered Clouds
6:53 PM 52.0 °F - 30.0 °F 43% 29.99 in 10.0 mi West 6.9 mph - N/A   Clear
7:53 PM 54.0 °F - 30.0 °F 40% 29.98 in 10.0 mi West 16.1 mph - N/A   Clear
8:53 PM 52.0 °F - 28.9 °F 41% 30.00 in 10.0 mi WSW 3.5 mph - N/A   Partly Cloudy
9:53 PM 48.9 °F - 30.0 °F 48% 30.01 in 10.0 mi WSW 12.7 mph - N/A   Clear
10:53 PM 48.9 °F - 28.9 °F 46% 30.01 in 10.0 mi West 11.5 mph - N/A   Clear
11:53 PM 45.0 °F 37.9 °F 30.0 °F 56% 30.00 in 10.0 mi WSW 16.1 mph - N/A   Clear